Home > Weather > Sarasota > Past weeks

Flag for USA Past Weather in Sarasota, Florida, USA — Yesterday and Last 2 Weeks

Now
79 °F

Clear.


Feels Like: 82 °F
Forecast: 78 / 91 °F
Wind: 5 mph from East

Location: Sarasota-Bradenton International Airport

Current Time: Jul 31, 2016 at 1:40:49 AM

Latest Report: Jul 31, 2016 at 12:53 AM


Visibility: 10 mi

Pressure: 30.03 "Hg

Humidity: 79%

Dew Point: 72 °F

Location of SarasotaLocation

Past Weather in Sarasota — Graph

°F

Sarasota Temperature Yesterday

Maximum temperature yesterday: 92 °F (at 12:53 PM)
Minimum temperature yesterday: 80 °F (at 4:53 AM)
Average temperature yesterday: 86 °F

High & Low Weather Summary for the Past Weeks

 TemperatureHumidityPressure
High96 °F (Jul 17, 3:53 PM)91% (Jul 22, 8:53 PM)30.18 "Hg (Jul 22, 8:53 PM)
Low74 °F (Jul 23, 6:53 AM)40% (Jul 20, 3:53 PM)29.97 "Hg (Jul 23, 8:53 PM)
Average84 °F71%30.06 "Hg
* Reported Jul 15 11:02 PM — Jul 30 11:53 PM, Sarasota, Weather by CustomWeather, © 2016

Note: Actual official high and low records may vary slightly from our data, if they occured in-between our weather recording intervals... More about our weather records

Advertising

Sarasota Weather History for the Previous 24 Hours

Scroll right to see more
 ConditionsComfort  
Time TempWeatherWind HumidityBarometerVisibility
11:53 PM
Sat, Jul 30
80 °FPassing clouds.6 mph76%30.05 "Hg10 mi
10:53 PM80 °FPassing clouds.9 mph79%30.05 "Hg10 mi
9:53 PM84 °FClear.5 mph80%30.04 "Hg10 mi
8:53 PM86 °FPartly sunny.3 mph72%30.02 "Hg10 mi
7:53 PM87 °FSunny.6 mph67%29.99 "Hg10 mi
6:53 PM89 °FPartly sunny.6 mph63%30.00 "Hg10 mi
5:53 PM90 °FScattered clouds.9 mph61%29.98 "Hg10 mi
5:01 PM91 °FPassing clouds.9 mph59%29.99 "Hg10 mi
4:53 PM92 °FThunderstorms. Broken clouds.9 mph60%29.99 "Hg10 mi
3:53 PM89 °FScattered clouds.9 mph68%30.01 "Hg10 mi
2:53 PM87 °FMostly cloudy.8 mph69%30.03 "Hg10 mi
2:01 PM86 °FPartly sunny.3 mph72%30.03 "Hg10 mi
1:53 PM89 °FThunderstorms. Scattered clouds.7 mph61%30.04 "Hg10 mi
12:53 PM92 °FBroken clouds.8 mph58%30.06 "Hg10 mi
11:53 AM91 °FSunny.7 mph57%30.06 "Hg10 mi
10:53 AM89 °FThundershowers. Broken clouds.6 mph61%30.06 "Hg10 mi
9:53 AM89 °FSunny.No wind59%30.07 "Hg10 mi
8:53 AM85 °FSunny.3 mph75%30.05 "Hg10 mi
7:53 AM82 °FSunny.3 mph82%30.04 "Hg10 mi
6:53 AM80 °FClear.3 mph85%30.01 "Hg10 mi
5:53 AM80 °FClear.5 mph87%29.99 "Hg10 mi
4:53 AM80 °FClear.No wind87%29.98 "Hg10 mi
3:53 AM81 °FClear.No wind88%29.99 "Hg10 mi
2:53 AM82 °FClear.No wind82%30.00 "Hg10 mi
1:53 AM81 °FClear.3 mph85%30.01 "Hg10 mi
Weather by CustomWeather, © 2016

See weather overviewHow to use our weather pages